Simultaneous Nadir Overpasses (SNOs) Predictions

Prediction of SNOs between METOP-B and NOAA-19 Satellite Orbit:

Table of predicted SNOs for the next 14.0 days since TLE Epoch: 4/20/2024
Index Date (METOP-B) Time (METOP-B) Lat,Lon (METOP-B) SZA (METOP-B ) Date (NOAA-19) Time (NOAA-19) Lat,Lon (NOAA-19) SZA (NOAA-19 ) Distance(km) Time Diff (sec)
1 04/21/2024 13:35:42 -78.20, 163.32 113.90 04/21/2024 13:34:40 -78.22, 163.40 113.90 2.27 62
2 04/21/2024 14:26:21 78.26, -29.04 66.16 04/21/2024 14:25:37 78.25, -29.11 66.14 1.71 44
3 04/21/2024 15:16:59 -78.38, 138.96 113.72 04/21/2024 15:16:34 -78.37, 138.86 113.74 2.77 25
4 04/21/2024 16:07:36 78.52, -52.94 66.43 04/21/2024 16:07:28 78.52, -52.94 66.43 0.11 8
5 04/21/2024 16:58:15 -78.60, 114.86 113.49 04/21/2024 16:58:26 -78.59, 114.81 113.49 1.29 11
6 04/21/2024 17:48:52 78.73, -77.00 66.67 04/21/2024 17:49:20 78.74, -76.94 66.68 1.53 28
7 04/21/2024 18:39:31 -78.81, 90.80 113.26 04/21/2024 18:40:18 -78.81, 90.81 113.25 0.23 47
8 04/21/2024 19:30:09 78.90,-101.27 66.85 04/21/2024 19:31:13 78.92,-101.15 66.88 3.15 64
9 05/03/2024 07:42:44 -77.45,-112.15 118.44 05/03/2024 07:41:48 -77.45,-112.15 118.45 0.10 56
10 05/03/2024 08:33:22 77.53, 55.57 61.65 05/03/2024 08:32:41 77.52, 55.47 61.63 2.87 41
11 05/03/2024 09:23:57 -77.80,-135.84 118.07 05/03/2024 09:23:37 -77.81,-135.79 118.07 1.39 20
12 05/03/2024 10:14:35 77.89, 31.91 62.02 05/03/2024 10:14:30 77.88, 31.87 62.01 1.37 5
13 05/03/2024 11:05:12 -78.07,-159.85 117.79 05/03/2024 11:05:28 -78.08,-159.76 117.77 2.76 16
14 05/03/2024 11:55:50 78.15, 7.92 62.30 05/03/2024 11:56:21 78.15, 7.93 62.30 0.15 31
15 05/03/2024 12:46:28 -78.29, 175.97 117.56 05/03/2024 12:47:21 -78.28, 175.89 117.57 2.35 53



Historial Predications of SNOs between METOP-B and NOAA-19
